This is the latest recevied weather packets stored in our database for station/object APPOWX. If no packets are shown the sender has not sent any weather packets the latest 10 day(s).
| Time | Temp. | Humidity | Pressure | Rain* | Wind** | Luminosity | Snow |
|---|---|---|---|---|---|---|---|
| 1778363665 | 22.22° C | 55% | 1011.3 hPa | 0 mm | - | - | - |
| 1778363604 | 22.22° C | 56% | 1011.2 hPa | 0 mm | - | - | - |
| 1778363544 | 22.22° C | 54% | 1011.3 hPa | 0 mm | - | - | - |
| 1778363484 | 22.22° C | 57% | 1011.3 hPa | 0 mm | - | - | - |
| 1778363424 | 22.22° C | 54% | 1011.2 hPa | 0 mm | - | - | - |
| 1778363364 | 22.22° C | 53% | 1011.4 hPa | 0 mm | - | - | - |
| 1778363304 | 22.22° C | 57% | 1011.2 hPa | 0 mm | - | - | - |
| 1778363243 | 22.22° C | 56% | 1011.4 hPa | 0 mm | - | - | - |
| 1778363183 | 22.22° C | 57% | 1011.3 hPa | 0 mm | - | - | - |
| 1778363123 | 22.22° C | 55% | 1011.4 hPa | 0 mm | - | - | - |
| 1778363063 | 22.22° C | 56% | 1011.4 hPa | 0 mm | - | - | - |
| 1778363003 | 22.22° C | 54% | 1011.3 hPa | 0 mm | - | - | - |
| 1778362943 | 22.22° C | 55% | 1011.3 hPa | 0 mm | - | - | - |
| 1778362883 | 22.22° C | 56% | 1011.2 hPa | 0 mm | - | - | - |
| 1778362823 | 22.22° C | 58% | 1011.3 hPa | 0 mm | - | - | - |
| 1778362762 | 22.22° C | 57% | 1011.4 hPa | 0 mm | - | - | - |
| 1778362702 | 22.22° C | 57% | 1011.2 hPa | 0 mm | - | - | - |
| 1778362643 | 22.22° C | 58% | 1011.3 hPa | 0 mm | - | - | - |
| 1778362582 | 22.22° C | 56% | 1011.3 hPa | 0 mm | - | - | - |
| 1778362522 | 22.22° C | 55% | 1011.4 hPa | 0 mm | - | - | - |
| 1778362462 | 22.22° C | 55% | 1011.3 hPa | 0 mm | - | - | - |
| 1778362402 | 22.22° C | 56% | 1011.3 hPa | 0 mm | - | - | - |
| 1778362342 | 22.22° C | 55% | 1011.3 hPa | 0 mm | - | - | - |
| 1778362281 | 22.22° C | 54% | 1011.4 hPa | 0 mm | - | - | - |
| 1778362221 | 22.22° C | 53% | 1011.3 hPa | 0 mm | - | - | - |
* Rain latest hour (hover to see other rain measurements)
** Current wind speed in m/s (hover to see current wind gust speed)